TimeCDT,TemperatureF,Dew PointF,Humidity,Sea Level PressureIn,VisibilityMPH,Wind Direction,Wind SpeedMPH,Gust SpeedMPH,PrecipitationIn,Events,Conditions,WindDirDegrees,DateUTC
12:56 AM,72.9,63.9,73,30.04,10.0,SE,5.8,-,N/A,,Clear,140,2013-10-27 05:56:00
1:56 AM,72.0,63.9,76,30.04,10.0,Calm,Calm,-,N/A,,Clear,0,2013-10-27 06:56:00
2:56 AM,70.9,63.9,78,30.02,10.0,SSE,8.1,-,N/A,,Clear,150,2013-10-27 07:56:00
3:56 AM,70.0,63.9,81,30.02,10.0,ESE,5.8,-,N/A,,Clear,120,2013-10-27 08:56:00
4:56 AM,68.0,63.9,87,30.02,10.0,Calm,Calm,-,N/A,,Clear,0,2013-10-27 09:56:00
5:56 AM,68.0,63.9,87,30.03,10.0,Calm,Calm,-,N/A,,Clear,0,2013-10-27 10:56:00
6:56 AM,68.0,64.9,90,30.03,10.0,ESE,5.8,-,N/A,,Clear,120,2013-10-27 11:56:00
7:56 AM,68.0,64.9,90,30.04,10.0,ESE,3.5,-,N/A,,Clear,120,2013-10-27 12:56:00
8:56 AM,70.0,65.8,87,30.06,10.0,Calm,Calm,-,N/A,,Clear,0,2013-10-27 13:56:00
9:56 AM,75.9,68.0,76,30.08,10.0,SE,6.9,-,N/A,,Clear,140,2013-10-27 14:56:00
10:56 AM,79.9,68.0,67,30.08,10.0,SSE,9.2,-,N/A,,Clear,160,2013-10-27 15:56:00
11:56 AM,81.9,66.9,60,30.07,10.0,SSE,9.2,-,N/A,,Overcast,160,2013-10-27 16:56:00
12:56 PM,82.9,66.9,58,30.05,10.0,SSE,9.2,-,N/A,,Mostly Cloudy,160,2013-10-27 17:56:00
1:56 PM,84.9,63.9,49,30.01,10.0,SSW,8.1,-,N/A,,Mostly Cloudy,210,2013-10-27 18:56:00
2:56 PM,83.8,63.9,51,29.99,10.0,SSE,8.1,-,N/A,,Overcast,150,2013-10-27 19:56:00
3:56 PM,84.9,63.0,48,29.97,10.0,ESE,8.1,-,N/A,,Overcast,120,2013-10-27 20:56:00
4:56 PM,84.9,63.0,48,29.96,10.0,ESE,4.6,-,N/A,,Partly Cloudy,120,2013-10-27 21:56:00
5:56 PM,84.9,61.9,46,29.95,10.0,Calm,Calm,-,N/A,,Mostly Cloudy,0,2013-10-27 22:56:00
6:56 PM,82.9,63.0,51,29.95,10.0,South,8.1,-,N/A,,Mostly Cloudy,190,2013-10-27 23:56:00
7:56 PM,79.9,63.9,58,29.96,10.0,South,5.8,-,N/A,,Mostly Cloudy,190,2013-10-28 00:56:00
8:56 PM,77.9,63.9,62,29.98,10.0,Calm,Calm,-,N/A,,Clear,0,2013-10-28 01:56:00
9:56 PM,73.9,63.9,71,29.98,10.0,SSE,5.8,-,N/A,,Clear,150,2013-10-28 02:56:00
10:56 PM,73.9,63.0,68,29.99,10.0,SE,9.2,-,N/A,,Clear,130,2013-10-28 03:56:00
11:56 PM,73.9,63.9,71,29.99,10.0,SE,6.9,-,N/A,,Clear,130,2013-10-28 04:56:00